Home   Weather   Victoria   Past weeks

Flag for Canada Past Weather in Victoria, British Columbia, Canada — Yesterday and Last 2 Weeks

Now
41 °F

Light rain. Mostly cloudy.


Feels Like: 32 °F
Forecast: 22 / 49 °F
Wind: 17 mph from South

Location: Victoria Int. Airportb. C.

Current Time: Dec 11, 2016 at 2:14:40 am

Latest Report: Dec 11, 2016 at 1:00 am


Visibility: 12 mi

Pressure: 29.79 "Hg

Humidity: 87%

Dew Point: 37 °F

Location of VictoriaLocation

Past Weather in Victoria — Graph

°F

Victoria Temperature Yesterday

Maximum temperature yesterday: 43 °F (at 2:00 pm)
Minimum temperature yesterday: 32 °F (at 2:00 am)
Average temperature yesterday: 37 °F

High & Low Weather Summary for the Past Weeks

 TemperatureHumidityPressure
High50 °F (Dec 2, 5:00 pm)100% (Nov 26, 3:00 am)30.50 "Hg (Nov 26, 3:00 am)
Low28 °F (Dec 7, 3:00 am)41% (Dec 7, 1:00 pm)29.41 "Hg (Nov 27, 7:00 pm)
Average39 °F84%30.00 "Hg
* Reported Nov 26 1:00 am — Dec 11 1:00 am, Victoria, Weather by CustomWeather, © 2016

Note: Actual official high and low records may vary slightly from our data, if they occured in-between our weather recording intervals... More about our weather records

Advertising

Victoria Weather History for the Previous 24 Hours

Scroll right to see more
 ConditionsComfort  
Time TempWeatherWind HumidityBarometerVisibility
1:00 am
Sun, Dec 11
41 °FLight rain. Mostly cloudy.17 mph87%29.79 "Hg12 mi
12:00 am41 °FRain. Fog.15 mph93%29.78 "Hg5 mi
11:00 pm
Sat, Dec 10
41 °FLight rain. Mostly cloudy.9 mph93%29.78 "Hg12 mi
10:00 pm39 °FLight rain. Mostly cloudy.7 mph93%29.78 "Hg12 mi
9:00 pm39 °FPassing clouds.2 mph93%29.79 "Hg15 mi
8:00 pm39 °FLight rain. Partly cloudy.9 mph93%29.78 "Hg20 mi
7:00 pm39 °FLight rain. Mostly cloudy.6 mph93%29.78 "Hg8 mi
6:00 pm39 °FLight rain. Mostly cloudy.9 mph100%29.78 "Hg8 mi
5:00 pm41 °FLight rain. Partly cloudy.10 mph87%29.77 "Hg20 mi
4:00 pm41 °FLight rain. Broken clouds.9 mph87%29.76 "Hg20 mi
3:00 pm43 °FBroken clouds.6 mph87%29.75 "Hg20 mi
2:00 pm43 °FLight rain. Broken clouds.3 mph87%29.74 "Hg20 mi
1:00 pm41 °FLight rain. Mostly cloudy.13 mph87%29.75 "Hg20 mi
12:00 pm41 °FLight rain. Cloudy.14 mph87%29.76 "Hg20 mi
11:00 am39 °FLight rain. Cloudy.13 mph93%29.79 "Hg20 mi
10:00 am39 °FLight rain. Cloudy.9 mph93%29.81 "Hg20 mi
9:00 am36 °FLight rain. Cloudy.No wind100%29.80 "Hg12 mi
8:00 am32 °FCloudy.6 mph100%29.81 "Hg20 mi
7:00 am32 °FOvercast.2 mph100%29.81 "Hg15 mi
6:00 am32 °FPartly cloudy.5 mph100%29.81 "Hg15 mi
5:00 am34 °FFog.5 mph93%29.81 "Hg3 mi
4:48 am34 °FFog.6 mph93%29.80 "Hg1 mi
4:00 am32 °FIce fog.2 mph100%29.80 "Hg6 mi
3:00 am34 °FFog.6 mph100%29.81 "Hg1 mi
2:00 am32 °FPartly cloudy.2 mph93%29.79 "Hg20 mi
Weather by CustomWeather, © 2016

See weather overviewHow to use our weather pages